軌道要素
Epoch 2024 June 19.0 TT = JDT 2460480.5
T 2024 June 13.60376 TT MPC
q 1.5529691 (2000.0) P Q
n 0.09377243 Peri. 47.95288 +0.84725412 -0.52376508
a 4.7982839 Node 343.01598 +0.35200650 +0.67837113
e 0.6763491 Incl. 17.63434 +0.39780885 +0.51525018
P 10.5
From 2587 observations 1992 Aug. 29-2014 Feb. 9, mean residual 0".6.
Nongravitational parameters A1 = +3.77, A2 = +0.1661.
|